User: anonymous   Login
Location: College Park
(38.9810°N, 76.9370°W)
Time: 14:36:22
(UTC-05:00)
Language:

Envisat - Orbit

View from above orbital plane
View from above orbital plane
View from above satellite
View from above satellite

Ground track
Ground track

The orbit data is extracted from the following two-line orbital elements,

1 27386U 02009A   17323.42429324  .00000004  00000-0  15115-4 0  9994
2 27386  98.2130   2.0700 0001415  84.5876 275.5481 14.37908606823389
Epoch (UTC): 19 November 2017 10:10:58
Eccentricity: 0.0001415
inclination: 98.2130°
perigee height: 764 km
apogee height: 766 km
right ascension of ascending node: 2.0700°
argument of perigee: 84.5876°
revolutions per day: 14.37908606
mean anomaly at epoch: 275.5481°
orbit number at epoch: 82338

The dashed part of the orbit path shows where the satellite is in the earth's shadow,  

DLR